Theta_e
319 319 320 321 321 322 322 323 324 325 326 327 327 327 328 328 328 329 330 330 330 330 330 330 330 330 329 329 328 328 329 330 330 331 331 330 330 331 331 330 330 330
318 318 318 318 319 320 321 322 323 323 324 324 326 327 327 327 328 329 329 329 329 329 329 329 329 329 328 328 327 327 328 328 329 330 330 330 330 330 331 330 331 331
316 316 316 316 316 317 319 320 321 322 322 323 325 326 326 326 326 327 328 328 328 328 328 328 328 328 328 327 326 326 327 327 328 329 330 330 330 330 330 330 330 331
314 314 314 314 314 315 316 317 318 319 321 322 322 323 323 323 324 326 327 327 327 327 327 327 326 326 325 325 325 325 326 327 328 329 329 329 330 330 330 329 330 330
313 313 313 312 312 313 313 315 316 317 319 320 321 321 322 322 323 325 326 326 326 325 325 325 325 324 324 324 324 325 326 327 327 328 328 328 329 329 330 330 330 330
312 312 311 311 311 312 312 314 315 317 318 319 321 321 322 322 323 324 324 324 324 323 324 326 326 326 326 325 325 325 326 326 326 326 327 328 329 329 329 330 330 329
312 311 311 310 311 311 312 313 315 316 317 319 321 321 322 322 323 323 323 323 323 324 326 326 326 327 327 327 327 326 326 327 327 327 328 328 328 329 329 329 329 329
311 311 310 310 310 310 311 313 315 316 316 318 320 321 322 322 322 323 323 322 323 324 326 325 325 326 327 327 327 326 326 327 327 328 328 327 327 328 329 329 329 329
311 310 310 310 310 309 310 312 314 315 315 316 318 320 321 321 321 322 322 320 321 323 325 325 325 326 327 327 327 326 326 327 327 327 328 328 328 329 329 329 329 329
310 310 310 309 309 308 309 311 313 313 313 314 315 317 319 320 320 321 321 319 320 322 324 325 325 326 327 327 327 327 327 327 327 327 327 328 328 328 328 328 328 328
309 309 309 308 308 307 308 309 311 312 311 311 312 314 315 317 318 320 320 320 320 321 323 323 324 324 325 325 325 326 326 327 327 327 327 327 327 328 328 328 328 328
308 308 307 307 307 306 306 307 308 310 309 309 310 311 312 313 315 316 318 318 319 320 321 322 322 322 321 321 322 323 324 326 327 327 327 327 327 327 327 327 327 327
306 306 306 306 306 306 305 305 306 307 307 307 308 308 309 310 311 312 313 315 316 318 319 320 320 320 320 319 319 320 322 324 326 327 327 327 327 326 326 326 325 326
305 305 304 304 305 305 305 304 305 305 305 306 306 307 307 307 307 308 309 311 313 314 315 316 318 320 320 319 319 319 320 323 325 326 327 327 327 326 325 325 325 325
305 304 304 304 304 304 303 303 304 304 304 304 305 305 306 306 306 307 307 308 310 311 312 313 315 316 316 316 318 318 319 321 324 325 326 327 327 326 326 325 324 325
305 304 304 304 303 303 303 303 303 303 303 303 303 303 304 305 305 306 307 307 307 308 309 310 312 312 312 313 315 317 319 320 322 324 326 326 327 326 326 325 324 323
304 304 303 303 303 303 303 303 303 303 302 302 302 302 302 303 303 304 304 305 306 306 307 307 308 308 309 311 313 316 318 319 321 323 324 325 325 325 325 325 325 324
303 303 303 303 303 303 302 302 302 303 302 302 302 301 301 301 301 301 301 302 304 304 305 305 306 306 307 309 312 314 316 318 319 321 322 323 324 324 324 325 325 323
302 302 302 302 302 302 302 302 302 303 303 302 301 301 300 300 300 300 299 300 301 302 303 304 304 305 306 307 309 311 313 315 317 318 320 321 322 323 324 324 324 323
302 302 301 301 301 301 300 300 301 302 302 302 301 300 300 299 299 299 299 299 299 300 301 302 303 304 305 306 307 309 310 313 314 316 318 320 320 321 322 323 324 324
301 301 301 300 300 299 298 298 299 301 301 301 301 300 299 298 298 298 298 299 299 299 299 300 301 302 303 304 306 307 308 310 312 314 316 318 319 319 320 322 324 324
300 300 300 300 299 299 298 296 296 298 299 300 300 299 298 298 298 298 298 298 298 298 299 299 299 300 301 302 304 305 307 308 310 311 313 315 317 318 319 320 322 323
300 300 299 299 299 299 298 297 296 296 297 298 299 299 298 298 299 299 298 298 298 298 298 299 299 299 300 301 302 303 304 306 307 308 310 312 314 315 316 318 319 321
299 299 299 299 299 298 298 298 297 296 296 297 298 297 296 297 298 299 298 299 298 297 297 298 298 299 299 300 300 301 302 303 304 306 307 308 310 311 313 314 315 316
300 299 299 299 299 299 298 298 298 297 296 296 296 296 295 296 298 299 298 298 297 296 297 298 298 298 298 299 299 300 301 301 302 303 304 305 307 308 310 311 312 313
299 299 298 299 299 299 298 298 297 297 297 296 296 296 295 295 297 298 297 296 295 295 296 298 298 298 298 298 298 299 299 299 300 301 302 303 304 305 307 308 309 310
Wind_Speed
3 2 2 3 6 8 10 11 12 13 13 12 11 11 12 12 13 15 16 17 19 20 21 22 23 23 24 26 28 30 31 32 31 30 30 29 27 26 26 26 26 26
8 5 4 5 7 8 7 6 9 12 13 12 12 13 14 14 15 15 16 17 18 20 21 22 24 25 25 26 28 30 31 33 32 30 29 29 28 26 25 25 25 25
13 10 8 9 9 10 9 6 7 9 10 11 11 12 15 16 17 17 17 17 19 21 23 24 25 26 27 28 29 30 30 31 31 29 27 28 29 26 23 23 22 23
18 17 16 14 13 11 10 9 8 8 9 9 10 11 13 14 15 15 15 16 19 22 23 25 27 28 29 29 29 29 28 28 27 26 26 28 28 26 23 22 22 22
21 21 21 19 16 14 12 11 11 11 11 11 11 11 11 11 11 12 13 15 18 21 24 26 28 28 27 26 26 26 24 24 24 24 25 27 28 25 22 23 22 21
22 22 22 21 19 18 16 14 14 14 14 13 13 13 12 12 12 12 15 18 20 22 24 23 23 22 22 21 22 22 21 21 22 23 24 25 26 24 23 23 22 21
22 23 23 23 21 21 19 17 15 16 16 15 15 14 14 14 14 15 17 18 20 22 21 19 19 19 18 18 18 19 19 20 21 21 22 21 22 23 23 22 22 21
22 23 24 24 23 23 22 19 18 18 18 17 16 15 15 15 16 17 18 17 18 19 18 17 17 17 16 16 17 18 18 18 19 21 19 16 18 20 19 20 21 21
20 22 23 24 24 24 23 20 18 19 19 19 18 17 16 15 15 16 18 18 17 17 17 16 17 17 17 17 16 17 17 17 17 18 14 11 13 15 16 17 19 20
17 18 20 23 24 24 23 20 18 19 20 21 20 19 17 16 15 15 17 18 18 18 17 17 16 16 16 16 16 16 17 16 16 15 13 11 10 11 14 15 15 16
18 19 19 21 22 24 24 22 20 19 20 23 23 22 20 19 17 16 15 17 17 18 19 18 16 15 14 15 15 15 15 15 14 13 11 10 10 11 13 13 12 13
23 22 21 22 23 24 25 24 22 20 22 24 25 24 23 22 20 19 18 17 16 16 18 19 18 15 14 15 15 14 14 14 13 11 10 9 9 11 12 12 11 11
26 26 24 23 24 25 26 26 24 23 24 25 25 25 25 25 23 22 21 20 19 17 17 19 19 18 17 17 15 15 14 13 13 12 12 11 9 11 11 10 10 11
30 31 29 27 26 25 26 26 24 24 25 25 25 25 26 26 25 24 23 22 21 20 19 20 20 21 21 20 18 16 15 14 14 13 13 11 9 9 10 9 9 10
31 33 33 32 31 31 30 29 27 26 25 25 25 25 25 26 25 24 24 24 23 22 22 21 21 22 23 23 21 20 18 17 15 13 12 12 10 9 8 8 9 10
29 31 32 33 34 35 35 35 33 31 30 28 26 25 25 26 26 25 24 25 26 25 24 24 24 24 25 24 23 22 22 20 17 14 13 12 11 11 10 9 9 10
27 29 30 31 33 34 34 35 35 35 35 34 33 30 27 26 28 28 27 27 27 27 27 27 27 27 26 24 23 23 22 22 20 17 14 13 12 12 13 11 9 10
26 27 27 28 30 31 32 32 33 35 36 36 37 36 32 28 29 31 32 31 30 29 28 28 28 28 28 26 24 23 22 21 20 18 16 14 13 14 15 13 10 12
26 26 26 26 26 27 28 28 30 32 33 35 37 38 37 34 32 32 34 36 35 33 31 30 29 29 29 28 26 24 22 21 19 18 16 14 13 12 12 12 12 13
26 27 27 26 25 25 25 26 27 28 30 32 34 36 38 37 35 34 36 38 38 37 36 34 32 31 30 29 27 26 24 21 18 16 14 13 12 10 9 9 11 13
26 26 26 27 27 26 28 28 26 26 28 30 31 34 37 36 34 35 37 38 38 39 39 38 37 35 32 31 29 28 26 23 19 15 11 10 10 9 8 8 10 11
23 24 26 28 28 28 31 33 31 28 27 27 29 31 34 34 33 34 36 38 39 40 40 40 39 39 37 34 32 30 28 25 23 19 13 10 9 8 8 9 10 12
22 24 26 27 28 29 30 33 35 32 28 26 27 29 31 31 32 33 35 36 37 39 40 40 39 39 39 38 36 33 31 29 27 24 19 14 10 8 7 8 9 11
23 24 26 27 28 30 30 32 35 35 32 28 27 28 29 28 29 32 34 33 34 37 38 39 39 39 39 39 39 37 34 32 30 28 25 22 17 12 10 9 9 9
23 24 25 26 27 29 30 31 33 35 35 33 31 30 30 27 26 28 32 32 33 35 35 36 37 38 39 39 39 38 36 34 33 31 30 28 25 20 16 13 11 10
24 25 26 26 25 27 29 30 32 35 36 35 35 35 34 30 26 26 30 32 34 34 32 33 35 36 37 38 38 37 37 36 35 34 34 33 30 26 23 20 17 14
Wind_Direction
1 15 3 324 298 287 282 280 280 280 281 285 291 294 292 294 302 307 308 306 305 307 308 309 308 306 305 304 302 299 295 289 281 274 270 268 265 263 262 259 256 252
20 29 16 342 328 328 324 299 282 279 278 277 280 282 283 289 299 305 307 307 304 305 307 306 306 306 306 305 303 300 298 294 287 279 271 266 263 261 260 258 255 251
19 24 22 8 356 353 354 346 321 306 297 292 287 282 283 289 297 301 308 310 306 302 305 307 307 308 307 305 303 300 297 296 292 286 277 267 260 258 260 257 251 248
22 25 22 18 15 9 3 359 353 344 331 322 312 303 300 300 299 302 310 312 306 303 308 311 310 307 305 304 303 300 296 295 294 290 284 273 263 257 256 255 250 246
28 27 23 21 20 17 14 10 4 358 350 343 335 331 331 327 318 317 319 315 312 316 319 319 316 312 308 305 303 300 298 296 294 291 285 278 271 262 253 249 248 246
31 26 21 20 19 22 25 22 14 6 1 358 353 348 347 344 336 328 324 321 323 330 332 334 337 334 327 321 312 308 306 302 300 297 290 282 274 266 255 248 245 245
31 24 21 20 21 25 29 29 22 12 6 3 358 354 353 352 348 340 334 331 334 339 340 343 351 350 344 337 326 320 319 315 309 304 297 286 272 261 254 249 246 244
34 28 23 21 22 26 28 31 28 18 11 7 4 3 360 355 351 348 345 343 345 346 343 345 349 347 342 339 330 322 320 317 311 306 300 288 269 257 251 248 244 241
40 35 29 22 22 24 26 30 30 23 18 13 11 10 7 1 357 353 348 347 350 350 345 344 347 345 341 339 336 330 325 321 316 308 297 281 264 256 257 254 247 243
42 39 34 27 21 20 23 31 34 30 25 22 19 16 13 10 6 358 351 349 350 349 344 341 342 343 341 337 335 334 331 329 326 315 298 284 274 268 269 267 259 254
38 35 35 31 24 22 25 30 35 34 31 29 27 23 20 16 11 6 359 354 351 346 341 338 337 340 340 336 334 333 331 326 324 321 306 292 288 284 280 275 269 262
35 32 34 33 30 29 28 29 33 35 32 31 31 29 26 22 16 11 7 2 355 347 338 333 333 336 338 337 334 333 332 324 316 314 313 308 302 295 288 281 276 271
34 30 33 35 35 35 31 28 31 33 30 27 28 29 28 27 23 18 14 9 4 357 345 334 330 327 328 331 332 333 333 327 315 307 306 312 312 302 294 285 276 272
32 29 30 33 36 37 33 29 31 34 31 27 25 25 25 25 25 23 21 16 11 6 358 347 336 328 326 326 326 328 331 328 321 311 303 303 303 301 301 295 282 275
32 30 30 31 32 33 31 30 31 33 32 29 25 23 21 19 19 19 19 18 16 12 6 358 350 346 345 339 329 325 326 326 324 316 305 300 295 294 299 298 291 286
34 32 31 31 30 29 30 30 29 29 28 28 27 25 22 18 14 12 13 15 16 15 11 7 3 0 357 350 339 330 324 323 323 320 312 306 304 303 300 297 295 294
42 37 35 34 31 30 30 29 28 26 25 24 23 22 21 19 15 12 10 10 12 13 12 11 10 6 360 353 345 335 328 324 323 322 317 313 310 304 298 297 304 307
49 43 40 38 36 33 31 31 29 25 22 20 18 17 18 20 19 15 12 10 9 11 10 10 10 8 2 356 349 341 334 329 326 324 321 318 313 306 301 304 310 311
50 44 40 38 38 36 32 33 34 28 22 18 16 15 15 18 21 20 17 14 12 12 11 10 11 10 6 2 357 350 343 336 330 328 328 326 321 313 308 306 302 298
49 45 39 34 33 31 30 34 39 36 28 19 15 14 14 15 20 23 22 18 16 15 13 11 12 12 11 8 5 1 355 348 340 333 332 332 326 316 312 306 295 291
48 44 39 33 30 30 32 34 38 41 36 25 17 14 13 15 20 23 23 20 18 16 15 13 11 10 11 11 10 8 5 2 356 349 342 335 329 320 310 298 289 286
46 44 39 35 33 32 34 33 34 38 38 32 23 15 13 17 22 23 23 21 19 17 16 14 11 9 9 11 11 11 10 11 10 7 2 348 337 330 315 298 287 281
47 46 41 37 35 33 31 30 30 33 36 35 28 17 14 19 22 20 19 19 18 15 15 15 14 11 9 8 9 10 11 14 16 16 15 9 358 343 328 312 299 288
46 45 42 39 36 33 30 27 27 29 33 35 31 22 18 23 24 18 16 17 17 14 14 15 16 14 12 10 9 9 10 13 15 17 18 17 13 3 347 331 320 307
40 41 42 41 36 32 30 27 24 27 30 32 32 27 25 30 30 21 16 16 15 12 13 16 16 15 14 12 10 9 10 12 14 16 18 18 16 13 5 351 337 325
39 41 44 44 38 31 29 28 25 26 27 28 29 28 28 31 32 24 18 17 14 12 13 16 17 14 14 13 12 11 12 11 12 14 16 16 16 17 15 9 360 348